Location: Multiple Mirror Telescope
(31.6889°N, 110.8853°W)
Time: 05:41:30
(UTC-07:00)

ISS - Pass Details

Date: 23 April 2026
Orbit: 414 x 424 km, 51.6° (Epoch: 18 May)

Event Time Altitude Azimuth Distance (km) Brightness Sun altitude
Exits shadow 03:28:07 13° 1° (N) 1,339 -0.8 -27.1°
Drops below altitude 10° 03:28:43 10° 10° (N) 1,497 -0.4 -27.0°
Sets 03:31:19 0° 30° (NNE) 2,366 1.1 -26.6°
